GCFV

Fuerteventura Airport

Airport
ICAO code
GCFV
IATA Code
FUE
Summary
ICAO Region
EUR
ICAO Territory
Location

El Matorral,

Serving
Puerto del Rosario
Elevation
86 ft
Coordinates
28° 27' 6" N , 13° 51' 55" W
KCC
Airport WX
Volcanic Ash
Metar
GCFV 201630Z 05012KT 9999 FEW045 22/16 Q1014

Description

Fuerteventura Airport also known as El Matorral Airport serves the Spanish island of Fuerteventura and is situated in El Matorral, 5 km southwest of the capital city Puerto del Rosario.

Climatology

Dry-summer subtropical ”Mediterranean" climate (Köppen climate classification Csa) - characterized by hot, dry summers and mild winters. During the summer, subtropical high pressure cells dominate, making rainfall unlikely except for the occasional thunderstorm. In the winter, periodic storms bring rain (snow at higher elevations).

Runways

Designator Length Width Surface Rops
1/19 2400 45 ASP Yes/Yes

Airport map

Aerial View

SKYbrary Partners:

Safety knowledge contributed by: